Powrót do katalogu

COSMOS 2251 DEB

AktywnyLEO
NORAD 35026·DEBRIS·🇷🇺 Russia

Wystrzelony Jun 16, 1993 z Plesetsk Cosmodrome

Loading…

Następne Przeloty (najbliższe 24 godziny)

TLE

ŚwieżeSource: Space-Track

Epoka: Sep 14, 2026, 10:09 UTC

1 35026U 93036AGP 26257.42316062  .00000113  00000-0  32725-4 0  9991
2 35026  74.0474 158.3070 0084014 202.7932 279.5045 14.53761226921494

Śledź COSMOS 2251 DEB w czasie rzeczywistym z AllMySat

Download on the App Store